Weather History for International Falls, MN

Change the Weather History Date:

Tuesday, December 4, 2012

  Actual Average Record
Temperature  
Mean Temperature 16 °F 15 °F  
Max Temperature 21 °F 23 °F 45 °F (1913)
Min Temperature 11 °F 6 °F -28 °F (1908)
Degree Days  
Heating Degree Days 49 50  
Month to date heating degree days 141 198  
Since 1 July heating degree days 2621 2659  
Cooling Degree Days 0 0  
Month to date cooling degree days 0 0  
Year to date cooling degree days 222 192  
Moisture  
Dew Point 9 °F    
Average Humidity 74    
Maximum Humidity 80    
Minimum Humidity 67    
Precipitation  
Precipitation T in 0.03 in 0.80 in (1922)
Month to date precipitation 0.03 0.12  
Year to date precipitation 24.04 23.53  
Snow  
Snow T in 0.50 in 8.50 in (2013)
Month to date snowfall T 2.0  
Since 1 July snowfall 10.9 18.0  
Snow Depth 0.00 in    
Sea Level Pressure  
Sea Level Pressure 30.16 in    
Wind  
Wind Speed 12 mph (West)    
Max Wind Speed 24 mph    
Max Gust Speed 33 mph    
Visibility 9 miles    
Events Snow    
T = Trace of Precipitation, MM = Missing Value Source: NWS Daily Summary

Daily Weather History Graph

Daily Weather History Graph

Search for Another Location

Airport:

Trip Planner

Search our weather history database for the weather conditions in past years. The results will help you decide how hot, cold, wet, or windy it might be!

Date:

Astronomy

Dec. 04, 2012 Rise Set
Actual Time 7:48 AM CST 4:19 PM CST
Civil Twilight 7:12 AM CST 4:55 PM CST
Nautical Twilight 6:32 AM CST 5:35 PM CST
Astronomical Twilight 5:54 AM CST 6:12 PM CST
Moon 10:26 PM CST (12/4) 11:26 AM CST (12/4)
Length of Visible Light 9h 42m
Length of Day
8h 30m
Waning Gibbous, 69% of the Moon is Illuminated
Dec 4
Waning Gibbous
Dec 6
Last Quarter
Dec 13
New
Dec 19
First Quarter
Dec 28
Full

Hourly Weather History & Observations

Time (CST) Temp. Windchill Dew Point Humidity Pressure Visibility Wind Dir Wind Speed Gust Speed Precip Events Conditions
12:55 AM 19.0 °F 5.6 °F 10.0 °F 68% 29.81 in 10.0 mi West 13.8 mph 32.2 mph 0.00 in   Overcast
1:55 AM 16.0 °F -0.9 °F 6.1 °F 65% 29.85 in 10.0 mi West 19.6 mph 33.4 mph 0.00 in   Scattered Clouds
2:35 AM 14.0 °F -3.0 °F 5.0 °F 67% 29.82 in 10.0 mi West 18.4 mph 25.3 mph N/A   Mostly Cloudy
2:55 AM 14.0 °F -3.0 °F 6.1 °F 71% 29.88 in 10.0 mi West 18.4 mph 27.6 mph N/A   Overcast
3:55 AM 12.9 °F -2.8 °F 5.0 °F 71% 29.91 in 10.0 mi West 15.0 mph 21.9 mph N/A   Overcast
4:55 AM 10.9 °F -5.4 °F 3.9 °F 73% 29.95 in 10.0 mi West 15.0 mph 24.2 mph N/A   Overcast
5:55 AM 10.4 °F -4.1 °F 3.2 °F 73% 29.91 in 10.0 mi West 11.5 mph 23.0 mph N/A   Overcast
6:55 AM 10.9 °F -5.9 °F 3.9 °F 73% 30.01 in 10.0 mi West 16.1 mph 28.8 mph 0.00 in   Overcast
7:55 AM 10.9 °F -5.4 °F 3.9 °F 73% 30.04 in 10.0 mi West 15.0 mph 27.6 mph N/A   Overcast
8:55 AM 12.0 °F -4.0 °F 5.0 °F 73% 30.07 in 6.0 mi West 15.0 mph 23.0 mph N/A   Haze
9:55 AM 12.9 °F -3.4 °F 6.1 °F 74% 30.11 in 4.0 mi West 16.1 mph 25.3 mph 0.00 in   Overcast
10:55 AM 16.0 °F 0.6 °F 8.1 °F 71% 30.14 in 3.0 mi West 16.1 mph 25.3 mph 0.00 in Snow Light Snow
11:55 AM 18.0 °F 1.7 °F 9.0 °F 68% 30.16 in 7.0 mi WNW 19.6 mph 27.6 mph 0.00 in Snow Light Snow
12:55 PM 19.0 °F 5.0 °F 10.0 °F 68% 30.20 in 10.0 mi WNW 15.0 mph 26.5 mph 0.00 in   Overcast
1:55 PM 19.0 °F 5.6 °F 10.0 °F 68% 30.23 in 10.0 mi WNW 13.8 mph 21.9 mph N/A   Overcast
2:55 PM 19.0 °F 7.5 °F 10.0 °F 68% 30.27 in 10.0 mi WNW 10.4 mph 19.6 mph 0.00 in   Overcast
3:55 PM 19.0 °F 7.5 °F 10.9 °F 71% 30.30 in 10.0 mi West 10.4 mph - N/A   Overcast
4:55 PM 19.0 °F 10.0 °F 10.9 °F 71% 30.33 in 10.0 mi West 6.9 mph - N/A   Overcast
5:55 PM 18.0 °F 7.7 °F 12.0 °F 78% 30.35 in 10.0 mi West 8.1 mph - N/A   Overcast
6:55 PM 18.0 °F 8.7 °F 12.0 °F 78% 30.38 in 10.0 mi WNW 6.9 mph - N/A   Overcast
7:55 PM 18.0 °F 9.8 °F 12.0 °F 78% 30.40 in 10.0 mi WNW 5.8 mph - N/A   Overcast
8:55 PM 19.0 °F 12.3 °F 12.9 °F 77% 30.39 in 10.0 mi WNW 4.6 mph - N/A   Overcast
9:55 PM 19.0 °F - 14.0 °F 81% 30.40 in 10.0 mi Calm Calm - N/A   Overcast
10:55 PM 19.9 °F 14.9 °F 10.9 °F 68% 30.42 in 10.0 mi East 3.5 mph - N/A   Overcast
11:55 PM 16.0 °F 10.4 °F 12.0 °F 84% 30.44 in 10.0 mi SSW 3.5 mph - N/A   Mostly Cloudy